Location: ???????
(55.5308°N, 37.4672°E)
Time: 05:41:42
(UTC+00:00)

Daily predictions for brighter satellites

Satellite Brightness Start Highest point End
(mag) Time Altitude Azimuth Time Altitude Azimuth Time Altitude Azimuth
KORONAS-FOTON 4.0 00:05:10 31° WSW 00:06:16 42° WNW 00:09:29 10° N
Cosmos 372 Rocket 4.2 00:01:54 10° NNW 00:07:07 71° ENE 00:12:14 10° SE
USA 290 3.9 00:05:18 15° SSE 00:07:19 26° ESE 00:10:02 10° NE
DMSP B5D2-2 4.0 00:04:55 10° S 00:10:06 74° WSW 00:15:19 10° NNW
Meteor 2-6 Rocket 4.4 00:06:55 21° SSW 00:10:52 68° WNW 00:16:48 10° NNE
Cosmos 1536 4.1 00:09:05 10° NW 00:11:47 20° W 00:12:17 19° W
IDEFIX/ARIANE 42P 2.8 00:08:12 10° N 00:13:16 55° WNW 00:16:41 20° SW
Cosmos 1812 Rocket 3.5 00:12:34 19° S 00:15:37 89° W 00:20:00 10° NNE
Envisat 3.3 00:11:26 10° NNE 00:16:30 65° ESE 00:21:15 12° S
COSMOS 2441 4.3 00:12:05 10° NNE 00:16:55 88° WNW 00:20:35 17° SSW
ATLAS 2AS CENTAUR R/B 3.5 00:11:07 10° W 00:17:44 47° NNW 00:24:16 10° ENE
Aureole 1 Rocket 2.9 00:14:10 10° NNW 00:18:06 78° WSW 00:23:02 10° SSE
USA 234 3.3 00:16:25 10° SE 00:22:50 57° SSW 00:29:18 10° WNW
Cosmos 2084 Rocket 3.9 00:22:45 10° WNW 00:26:37 36° SW 00:30:29 10° SSE
JB-3 4.4 00:23:06 10° SSE 00:26:41 69° ENE 00:30:18 10° N
Meteor 1-27 Rocket 4.2 00:21:40 10° S 00:27:32 66° E 00:33:24 10° NNE
Iridium 4 Rocket 3.3 00:23:28 13° S 00:27:40 80° W 00:32:53 10° N
ADEOS II 2.8 00:24:13 10° NNE 00:29:20 52° E 00:34:26 10° S
Cosmos 990 Rocket 4.3 00:24:58 10° NW 00:29:50 43° WSW 00:34:40 10° S
MOZ.5/SAFIR/RUBIN 5/SL-8 4.3 00:27:08 16° SSW 00:30:29 38° W 00:34:51 10° NNW
SWARM C 4.5 00:27:50 10° N 00:31:03 61° W 00:33:25 17° SSW
SWARM A 4.1 00:27:53 10° N 00:31:08 71° W 00:33:48 14° S
Cosmos 1707 4.1 00:31:24 13° W 00:32:15 14° WNW 00:33:59 10° NNW
MSX 4.4 00:26:53 10° N 00:32:21 46° WNW 00:36:45 16° SW
Cosmos 44 Rocket 3.8 00:29:47 16° WSW 00:33:51 61° NW 00:39:01 10° NE
ADEOS Rocket 3.7 00:27:18 10° NNE 00:34:42 70° WNW 00:41:53 12° SSW
Cosmos 1975 3.7 00:31:37 10° NNW 00:34:43 26° W 00:36:21 19° SW
H-2A R/B 2.2 00:31:28 11° S 00:34:55 53° WSW 00:38:27 10° NNW
ALOS 2.4 00:32:10 10° NNE 00:36:44 73° ESE 00:41:17 10° S
COSMOS 2406 3.6 00:32:29 16° SW 00:37:00 57° NW 00:42:42 10° NNE
COSMOS 2428 3.1 00:31:39 10° NNW 00:37:24 70° NE 00:43:05 10° SE
CZ-2D R/B 2.3 00:32:16 10° NNE 00:37:32 75° ESE 00:42:50 10° SSW
SL-16 R/B 3.1 00:31:24 10° SE 00:37:34 64° ENE 00:43:46 10° NNW
Cosmos 1763 Rocket 3.5 00:33:22 15° SSW 00:37:46 88° WNW 00:43:07 10° NNE
Alouette 2 Rocket 3.3 00:34:45 10° NNW 00:39:11 69° WSW 00:42:46 10° S
Cosmos 1238 Rocket 2.2 00:39:50 12° S 00:42:26 70° E 00:45:31 10° NNE
Okean 3 Rocket 4.3 00:42:26 10° N 00:46:50 58° ENE 00:51:14 10° SSE
Sich 1 3.5 00:43:21 10° N 00:47:30 59° ENE 00:51:36 10° SSE
Cosmos 1898 Rocket 3.4 00:42:39 10° NNW 00:47:50 79° WSW 00:52:59 10° SSE
FENGYUN 3A 4.4 00:47:06 10° N 00:52:09 40° WNW 00:56:43 12° SW
Cosmos 1937 Rocket 3.5 00:47:15 10° NNW 00:52:31 88° ENE 00:57:41 10° SSE
Cosmos 2360 Rocket 3.0 00:48:02 10° NW 00:52:53 30° WSW 00:57:44 10° SSW
Cosmos 1607 4.3 00:47:22 12° WSW 00:53:04 62° NNW 00:59:20 10° NE
Cosmos 1758 4.4 00:49:41 10° N 00:53:13 42° ENE 00:56:41 10° SE
Cosmos 2333 Rocket 3.5 00:49:40 10° WNW 00:53:34 19° W 00:57:04 11° SW
USA 281 4.4 00:51:27 12° SW 00:55:19 20° W 00:59:59 10° NW
Meteor 2-10 Rocket 3.5 00:55:52 10° NNW 01:00:58 85° WSW 01:06:13 10° S
Cosmos 1553 Rocket 4.4 00:58:37 10° S 01:04:46 70° E 01:11:04 10° NNE
Cosmos 2082 Rocket 3.6 01:00:11 10° W 01:05:09 29° NNW 01:10:09 10° NNE
Resurs 1-4 Rocket 2.2 01:01:07 10° NNE 01:06:24 66° WNW 01:11:39 10° SSW
Cosmos 540 Rocket 3.6 01:01:37 11° SW 01:06:32 64° WNW 01:11:41 10° NNE
H-2A R/B 3.4 01:03:31 10° NNE 01:07:17 36° E 01:10:59 10° SSE
Cosmos 2322 Rocket 3.3 01:03:42 10° NW 01:07:57 22° WSW 01:12:12 10° SSW
Cosmos 2221 3.8 01:07:40 11° WSW 01:10:55 25° WNW 01:14:21 10° N
Cosmos 468 Rocket 4.1 01:07:09 10° SSW 01:12:28 88° WNW 01:17:48 10° NNE
ACS3 Solar Sail 3.5 01:09:08 10° N 01:13:04 18° NW 01:17:02 10° W
CZ-2C R/B 4.2 01:11:15 10° NNE 01:15:38 31° E 01:19:52 10° SSE
USA 305 0.2 01:16:14 10° W 01:18:06 44° SSW 01:19:04 10° ESE
Cosmos 1833 4.3 01:12:26 10° SW 01:18:10 82° NW 01:23:53 10° NNE
Cosmos 1766 Rocket 4.2 01:14:36 10° NNW 01:18:33 34° W 01:22:26 10° SSW
NOSS 3-3 (A) 4.2 01:14:28 10° WSW 01:20:01 65° NNW 01:26:51 10° NE
Cosmos 1340 Rocket 4.3 01:16:50 10° N 01:20:23 39° ENE 01:23:56 10° SE
H-2A R/B 2.1 01:16:04 10° NNE 01:21:08 67° WNW 01:26:18 10° SSW
Cosmos 2219 Rocket 3.0 01:17:26 10° NW 01:22:10 28° WSW 01:26:54 10° SSW
SL-16 R/B 4.0 01:21:19 10° W 01:22:14 10° W 01:23:07 10° WSW
Cosmos 2237 Rocket 2.7 01:16:52 10° NNW 01:22:35 68° NE 01:28:15 10° SE
Cosmos 1980 4.1 01:18:46 10° NNW 01:24:27 74° NE 01:30:06 10° SE
USA 267 3.4 01:19:58 10° ENE 01:26:33 72° SSE 01:33:07 10° WSW
Cosmos 44 3.6 01:22:14 10° NW 01:27:42 89° SSW 01:33:03 10° SE
CZ-4C R/B 3.2 01:23:26 10° W 01:28:15 44° NNW 01:34:32 10° ENE
Cosmos 1745 Rocket 4.1 01:23:31 10° N 01:29:45 87° E 01:35:54 10° S
RESURS DK-1 2.5 01:26:34 10° NW 01:30:33 75° NE 01:34:31 10° SE
ARGOS 3.4 01:25:43 10° NNE 01:31:10 79° ESE 01:36:32 10° SSW
